Zurück zum Katalog

STARLINK-11626

AktivKommunikationVLEO
NORAD 63556·PAYLOAD·🇺🇸 United States

Gestartet Apr 13, 2025 von Cape Canaveral Space Force Station

Loading…

Nächste Überflüge (nächste 24 Stunden)

TLE

AktuellSource: CelesTrak SupGP

Epoche: Sep 14, 2026, 22:30 UTC

1 63556C 25075J   26257.93798611  .00055764  00000+0  43321-3 0  2579
2 63556  43.0005  93.4606 0001668 281.1144 241.8654 15.70805821    17

Verfolge STARLINK-11626 in Echtzeit mit AllMySat

Download on the App Store